Regional Weather Roundup
Issued by NWS Newport/Morehead, NC

Current Version | Previous Version | Text Only | Print | Product List | Glossary On
Versions: 1 2 3 4 5 6 7 8 9 10 11 12 13 14 15 16 17 18 19 20 21 22 23 24 25 26 27 28 29 30 31 32 33 34 35 36 37 38 39 40 41 42 43 44 45 46 47 48 49 50
000
ASUS42 KMHX 220610
RWRMHX
WEATHER ROUNDUP FOR EASTERN NORTH CAROLINA
NATIONAL WEATHER SERVICE NEWPORT/MOREHEAD CITY NC
100 AM EST MON DEC 22 2014

NOTE: "FAIR" INDICATES FEW OR NO CLOUDS BELOW 12,000 FEET
WITH NO SIGNIFICANT WEATHER AND/OR OBSTRUCTIONS TO VISIBILITY

NCZ015>017-031-032-045>047-102-103-220700-
NORTH COAST

CITY           SKY/WX    TMP DP  RH WIND       PRES   REMARKS
EDENTON        CLOUDY    41  36  82 NE9       30.21F
ELIZABETH CITY CLOUDY    47  38  71 NE13      30.23F
KITTY HAWK     CLOUDY    48  43  83 NE9       30.20F
MANTEO         CLOUDY    47  43  84 NE14G20   30.21F

$$

NCZ045>047-081-094-103-104-220700-
CENTRAL COAST

CITY           SKY/WX    TMP DP  RH WIND       PRES   REMARKS
FRISCO         LGT RAIN  48  48 100 NE10      30.16F FOG
SWANQUARTER      N/A     46 N/A N/A NE6G16    30.12F

$$

NCZ095-097-098-100-101-220700-
SOUTHERN COAST

CITY           SKY/WX    TMP DP  RH WIND       PRES   REMARKS
BEAUFORT       RAIN      46  45  96 NE12G20   30.15F FOG
CEDAR ISLAND     N/A     46 N/A N/A N18G24    30.18F
JACKSONVILLE   CLOUDY    44  42  93 NE9       30.13F FOG
PINEY ISLAND   RAIN      48  32  53 MISG      30.16F
WILMINGTON     RAIN      44  43  96 NE8       30.12F FOG


$$

NCZ011>013-027>030-043-044-078>080-089-090>093-098-220700-
COASTAL PLAIN

CITY           SKY/WX    TMP DP  RH WIND       PRES   REMARKS
AHOSKIE        CLOUDY    37  32  79 N7        30.25F
CLINTON        LGT RAIN  42  40  93 NE7       30.16F
ELIZABETHTOWN  RAIN      42  42  99 CALM      30.14F
GOLDSBORO      MIX PCPN  41  41 100 NE6       30.15F
GREENVILLE     CLOUDY    41  36  81 NE8       30.21F
HAVELOCK       CLOUDY    44  42  93 NE12      30.17F
KENANSVILLE    DRIZZLE   41  40  98 NE3       30.16F
KINSTON        DRIZZLE   42  38  85 N8        30.18F
NEW BERN       CLOUDY    45  41  86 NE8       30.18F FOG
RICHLANDS      CLOUDY    43  37  81 NE13      30.15F
ROCKY MOUNT    CLOUDY    40  34  79 NE10      30.21F
WASHINGTON     CLOUDY    41  37  85 NE7       30.19F
WHITEVILLE     LGT RAIN  43  42  95 NE7       30.10F

$$

AMZ130-135-150-152-154-156-158-170-250-252-270-ANZ085-086-088-633-658-670-220700-
MARINE OBSERVATIONS

STATION/POSITION TIME  TEMP    WIND        PRES    WAVE   SWELL
                       AIR SEA DIR/SP/G            HT/PER HT/PER
                 (UTC) (F)     (DEG/KT/KT) (MB)    (FT/S) (FT/S)
CHESAPEAKE LIGHT 0500   44      60/ 15/ 16 1025.8
64 E VA BEACH    0600   50 54   40/ 17/ 19 1023.4    3/ 4   2/10
DUCK             0600   47 46   40/ 18/ 21 1022.4
2 E DUCK         0600      46                N/A     4/ 5
10 NE DUCK       0600      51                N/A     4/ 5
OREGON INLET     0600   48 48   10/ 12/ 18 1022.5
13E OREGON INLT  0600      52                N/A     4/ 5
HATTERAS CG      0600   48 49   30/ 12/ 14 1021.6
DIAMOND BUOY     0600   63                 1020.4    4/ 5
17 S OCRACOKE    NOT AVBL
CAPE LOOKOUT     0500   47      20/ 16/ 20 1021.0
BEAUFORT LAB     0600   46 50   20/ 11/ 14 1019.6
30 SE NEW RIVER  0600   53 60   40/ 23/ 27 1019.3    7/ 6
5 SE WRIGHTSVLE  NOT AVBL
225 S CAPE HAT   0505   71 72  130/  8/ 10 1018.7    6/ 7   5/ 7
41 SE CHARLESTON 0600   70 72   80/ 17/ 21 1015.8    7/ 7   3/ 8

$$


USA.gov is the U.S. government's official web portal to all federal, state and local government web resources and services.